| time (UTC) | temp F | wind direction | speed MPH | gust MPH | rain 1hr in | rain 24hr in | rain mn in | humidity % | barometer mb |
| 20260505121535 | 37 | 25 | 8.0 | 9.0 | 0.00 | 0.26 | 0.26 | 95 | 1016.9 |
| 20260505121032 | 37 | 35 | 10.0 | 13.0 | 0.07 | 0.26 | 0.26 | 95 | 1016.9 |
| 20260505120528 | 37 | 25 | 7.0 | 9.0 | 0.07 | 0.26 | 0.26 | 95 | 1016.7 |
| 20260505120023 | 37 | 15 | 8.0 | 13.0 | 0.05 | 0.25 | 0.25 | 95 | 1016.8 |
| 20260505115518 | 37 | 2 | 8.0 | 11.0 | 0.05 | 0.25 | 0.25 | 94 | 1016.7 |
| 20260505115016 | 37 | 13 | 9.0 | 11.0 | 0.07 | 0.24 | 0.24 | 94 | 1016.7 |
| 20260505114513 | 37 | 12 | 7.0 | 13.0 | 0.00 | 0.23 | 0.23 | 94 | 1016.7 |
| 20260505114009 | 37 | 2 | 10.0 | 13.0 | 0.05 | 0.23 | 0.23 | 94 | 1016.4 |
| 20260505113506 | 37 | 1 | 6.0 | 11.0 | 0.07 | 0.22 | 0.22 | 94 | 1016.5 |
| 20260505113002 | 37 | 357 | 8.0 | 10.0 | 0.14 | 0.22 | 0.22 | 94 | 1016.4 |
| 20260505112459 | 37 | 3 | 10.0 | 13.0 | 0.12 | 0.21 | 0.21 | 93 | 1016.5 |
| 20260505111956 | 37 | 4 | 8.0 | 11.0 | 0.12 | 0.20 | 0.20 | 93 | 1016.5 |
| 20260505111450 | 38 | 355 | 5.0 | 8.0 | 0.07 | 0.19 | 0.19 | 93 | 1016.2 |
| 20260505110946 | 39 | 21 | 11.0 | 11.0 | 0.05 | 0.18 | 0.18 | 93 | 1016.0 |
| 20260505110443 | 39 | 34 | 9.0 | 14.0 | 0.12 | 0.18 | 0.18 | 93 | 1016.0 |
| 20260505101914 | 40 | 21 | 11.0 | 15.0 | 0.12 | 0.12 | 0.12 | 92 | 1015.6 |
| 20260505101409 | 40 | 20 | 8.0 | 13.0 | 0.12 | 0.11 | 0.11 | 92 | 1015.4 |
| 20260505100905 | 40 | 21 | 12.0 | 16.0 | 0.12 | 0.10 | 0.10 | 92 | 1015.1 |
| 20260505100402 | 40 | 357 | 10.0 | 16.0 | 0.14 | 0.09 | 0.09 | 92 | 1014.9 |
| 20260505095857 | 41 | 33 | 9.0 | 10.0 | 0.07 | 0.08 | 0.08 | 91 | 1014.9 |
| 20260505095355 | 41 | 20 | 7.0 | 13.0 | 0.00 | 0.07 | 0.07 | 91 | 1014.9 |
| 20260505094851 | 41 | 39 | 9.0 | 14.0 | 0.00 | 0.07 | 0.07 | 91 | 1015.1 |
| 20260505094348 | 41 | 23 | 9.0 | 13.0 | 0.05 | 0.07 | 0.07 | 91 | 1014.9 |
| 20260505093844 | 41 | 44 | 9.0 | 13.0 | 0.05 | 0.07 | 0.07 | 91 | 1014.8 |
| 20260505093341 | 41 | 37 | 10.0 | 11.0 | 0.07 | 0.06 | 0.06 | 90 | 1014.4 |
| 20260505092838 | 41 | 37 | 13.0 | 16.0 | 0.07 | 0.06 | 0.06 | 91 | 1014.6 |
| 20260505092337 | 41 | 48 | 9.0 | 13.0 | 0.00 | 0.05 | 0.05 | 91 | 1014.6 |
| 20260505091833 | 41 | 48 | 11.0 | 14.0 | 0.00 | 0.05 | 0.05 | 91 | 1014.6 |
| 20260505091331 | 41 | 51 | 9.0 | 11.0 | 0.05 | 0.05 | 0.05 | 91 | 1014.6 |
| 20260505090829 | 41 | 49 | 15.0 | 17.0 | 0.05 | 0.05 | 0.05 | 91 | 1014.3 |
| 20260505090327 | 42 | 45 | 9.0 | 14.0 | 0.00 | 0.04 | 0.04 | 91 | 1014.2 |
| 20260505085824 | 42 | 47 | 14.0 | 15.0 | 0.00 | 0.04 | 0.04 | 91 | 1014.1 |
| 20260505085322 | 42 | 46 | 9.0 | 14.0 | 0.00 | 0.04 | 0.04 | 91 | 1014.4 |
| 20260505084819 | 42 | 47 | 11.0 | 15.0 | 0.00 | 0.04 | 0.04 | 92 | 1014.3 |
| 20260505084318 | 42 | 57 | 14.0 | 21.0 | 0.00 | 0.04 | 0.04 | 92 | 1014.2 |
| 20260505083814 | 42 | 65 | 10.0 | 16.0 | 0.00 | 0.04 | 0.04 | 92 | 1014.2 |
| 20260505083312 | 42 | 72 | 11.0 | 17.0 | 0.07 | 0.04 | 0.04 | 92 | 1014.1 |
| 20260505082808 | 43 | 60 | 14.0 | 17.0 | 0.07 | 0.04 | 0.04 | 92 | 1014.2 |
| 20260505082305 | 43 | 49 | 10.0 | 10.0 | 0.00 | 0.03 | 0.03 | 92 | 1014.2 |
| 20260505081801 | 43 | 67 | 11.0 | 15.0 | 0.00 | 0.03 | 0.03 | 91 | 1014.4 |
| 20260505081258 | 43 | 40 | 12.0 | 16.0 | 0.05 | 0.03 | 0.03 | 91 | 1014.2 |
| 20260505080755 | 44 | 31 | 11.0 | 15.0 | 0.05 | 0.03 | 0.03 | 90 | 1014.1 |
| 20260505080250 | 47 | 40 | 9.0 | 13.0 | 0.07 | 0.02 | 0.02 | 90 | 1014.0 |
| 20260505075746 | 47 | 33 | 8.0 | 9.0 | 0.07 | 0.02 | 0.02 | 88 | 1014.2 |
| 20260505075244 | 48 | 41 | 4.0 | 7.0 | 0.05 | 0.01 | 0.01 | 86 | 1014.6 |
| 20260505074741 | 48 | 40 | 4.0 | 5.0 | 0.05 | 0.01 | 0.01 | 85 | 1014.4 |
| 20260505074238 | 48 | 75 | 4.0 | 5.0 | 0.00 | 0.00 | 0.00 | 83 | 1014.4 |
| 20260505073735 | 48 | 86 | 3.0 | 3.0 | 0.00 | 0.00 | 0.00 | 83 | 1014.4 |
| 20260505073233 | 48 | 67 | 2.0 | 3.0 | 0.00 | 0.00 | 0.00 | 84 | 1014.3 |
| 20260505072730 | 48 | 53 | 3.0 | 3.0 | 0.00 | 0.00 | 0.00 | 84 | 1014.6 |
| 20260505072226 | 48 | 49 | 2.0 | 2.0 | 0.00 | 0.00 | 0.00 | 84 | 1014.7 |
| 20260505071721 | 48 | 60 | 2.0 | 3.0 | 0.00 | 0.00 | 0.00 | 84 | 1014.6 |
| 20260505071219 | 48 | 72 | 2.0 | 2.0 | 0.00 | 0.00 | 0.00 | 85 | 1014.3 |
| 20260505070716 | 48 | 78 | 1.0 | 3.0 | 0.00 | 0.00 | 0.00 | 86 | 1014.3 |
| 20260505070212 | 48 | 105 | 5.0 | 6.0 | 0.00 | 0.00 | 0.00 | 87 | 1014.3 |
| 20260505065708 | 48 | 123 | 5.0 | 5.0 | 0.00 | 0.00 | 0.00 | 88 | 1014.1 |
| 20260505065205 | 48 | 111 | 4.0 | 6.0 | 0.00 | 0.00 | 0.00 | 89 | 1014.1 |
| 20260505064702 | 48 | 106 | 4.0 | 7.0 | 0.00 | 0.00 | 0.00 | 90 | 1014.0 |
| 20260505064200 | 48 | 134 | 4.0 | 6.0 | 0.00 | 0.00 | 0.00 | 91 | 1014.0 |
| 20260505063657 | 48 | 117 | 3.0 | 3.0 | 0.00 | 0.00 | 0.00 | 92 | 1014.1 |
| 20260505063153 | 48 | 125 | 3.0 | 7.0 | 0.00 | 0.00 | 0.00 | 92 | 1014.1 |
| 20260505062649 | 48 | 145 | 5.0 | 6.0 | 0.00 | 0.00 | 0.00 | 93 | 1014.1 |
| 20260505062147 | 48 | 130 | 5.0 | 6.0 | 0.00 | 0.00 | 0.00 | 93 | 1014.1 |
| 20260505061644 | 48 | 141 | 2.0 | 5.0 | 0.00 | 0.00 | 0.00 | 94 | 1014.2 |
| 20260505061142 | 49 | 108 | 3.0 | 5.0 | 0.00 | 0.00 | 0.00 | 94 | 1014.1 |
| 20260505060639 | 48 | 90 | 2.0 | 2.0 | 0.00 | 0.00 | 0.00 | 94 | 1014.2 |
| 20260505060136 | 48 | 111 | 1.0 | 2.0 | 0.00 | 0.00 | 0.00 | 94 | 1014.0 |
| 20260505055631 | 48 | 123 | 2.0 | 2.0 | 0.00 | 0.18 | 0.18 | 94 | 1014.1 |
| 20260505055128 | 48 | 182 | 1.0 | 1.0 | 0.00 | 0.18 | 0.18 | 94 | 1014.1 |
| 20260505054626 | 48 | 208 | 1.0 | 2.0 | 0.00 | 0.18 | 0.18 | 94 | 1014.0 |
| 20260505054124 | 48 | 200 | 2.0 | 2.0 | 0.00 | 0.18 | 0.18 | 93 | 1013.9 |
| 20260505053621 | 48 | 249 | 2.0 | 2.0 | 0.00 | 0.18 | 0.18 | 93 | 1013.8 |
| 20260505053117 | 48 | 196 | 0.0 | 1.0 | 0.00 | 0.18 | 0.18 | 93 | 1013.8 |
| 20260505052614 | 48 | 185 | 1.0 | 1.0 | 0.00 | 0.18 | 0.18 | 93 | 1014.0 |
| 20260505052112 | 48 | 235 | 1.0 | 2.0 | 0.00 | 0.18 | 0.18 | 93 | 1014.0 |
| 20260505051608 | 48 | 224 | 2.0 | 2.0 | 0.00 | 0.18 | 0.18 | 93 | 1013.8 |
| 20260505051107 | 48 | 214 | 3.0 | 3.0 | 0.00 | 0.18 | 0.18 | 93 | 1013.9 |
| 20260505050604 | 48 | 198 | 3.0 | 5.0 | 0.00 | 0.18 | 0.18 | 93 | 1013.8 |
| 20260505041532 | 49 | 224 | 3.0 | 5.0 | 0.12 | 0.17 | 0.17 | 92 | 1014.0 |
| 20260505041029 | 49 | 196 | 3.0 | 5.0 | 0.12 | 0.16 | 0.16 | 91 | 1014.0 |
| 20260505040526 | 49 | 209 | 4.0 | 5.0 | 0.07 | 0.14 | 0.14 | 91 | 1014.0 |
| 20260505040024 | 49 | 214 | 3.0 | 5.0 | 0.14 | 0.14 | 0.14 | 90 | 1014.0 |
| 20260505035519 | 49 | 241 | 4.0 | 5.0 | 0.12 | 0.13 | 0.13 | 90 | 1014.0 |
| 20260505035016 | 49 | 246 | 5.0 | 6.0 | 0.12 | 0.12 | 0.12 | 89 | 1014.2 |
| 20260505034513 | 49 | 267 | 5.0 | 7.0 | 0.07 | 0.11 | 0.11 | 88 | 1014.2 |
| 20260505034010 | 49 | 273 | 6.0 | 8.0 | 0.12 | 0.10 | 0.10 | 87 | 1014.0 |
| 20260505033507 | 49 | 275 | 5.0 | 8.0 | 0.17 | 0.10 | 0.10 | 87 | 1014.0 |
| 20260505033005 | 49 | 287 | 5.0 | 10.0 | 0.12 | 0.08 | 0.08 | 86 | 1013.8 |
| 20260505032502 | 50 | 295 | 6.0 | 8.0 | 0.12 | 0.07 | 0.07 | 85 | 1014.0 |
| 20260505031958 | 50 | 270 | 7.0 | 9.0 | 0.12 | 0.06 | 0.06 | 84 | 1013.8 |
| 20260505031455 | 51 | 262 | 7.0 | 9.0 | 0.12 | 0.05 | 0.05 | 82 | 1013.6 |
| 20260505030952 | 51 | 279 | 4.0 | 5.0 | 0.12 | 0.04 | 0.04 | 80 | 1013.9 |
| 20260505030448 | 51 | 347 | 1.0 | 2.0 | 0.12 | 0.03 | 0.03 | 79 | 1013.5 |
| 20260505025943 | 51 | 4 | 1.0 | 2.0 | 0.05 | 0.02 | 0.02 | 78 | 1013.4 |
| 20260505025441 | 51 | 12 | 2.0 | 2.0 | 0.00 | 0.01 | 0.01 | 77 | 1013.2 |
| 20260505024940 | 52 | 26 | 2.0 | 3.0 | 0.00 | 0.01 | 0.01 | 75 | 1013.2 |
| 20260505024437 | 52 | 16 | 2.0 | 3.0 | 0.00 | 0.01 | 0.01 | 73 | 1013.1 |
| 20260505023934 | 53 | 0 | 3.0 | 5.0 | 0.00 | 0.01 | 0.01 | 71 | 1012.8 |
| 20260505023431 | 53 | 10 | 5.0 | 7.0 | 0.00 | 0.01 | 0.01 | 70 | 1012.7 |
| 20260505022928 | 52 | 0 | 7.0 | 8.0 | 0.00 | 0.01 | 0.01 | 72 | 1012.6 |
| 20260505022426 | 53 | 359 | 4.0 | 5.0 | 0.00 | 0.01 | 0.01 | 72 | 1012.7 |
| 20260505021922 | 53 | 8 | 4.0 | 6.0 | 0.00 | 0.01 | 0.01 | 71 | 1012.6 |
| 20260505021419 | 53 | 345 | 5.0 | 7.0 | 0.07 | 0.01 | 0.01 | 69 | 1012.7 |
| 20260505020915 | 54 | 357 | 5.0 | 7.0 | 0.07 | 0.01 | 0.01 | 69 | 1012.9 |
| 20260505020410 | 53 | 330 | 5.0 | 6.0 | 0.00 | 0.00 | 0.00 | 74 | 1013.1 |
| 20260505015908 | 53 | 333 | 4.0 | 6.0 | 0.00 | 0.00 | 0.00 | 72 | 1012.9 |
| 20260505015405 | 53 | 323 | 4.0 | 5.0 | 0.00 | 0.00 | 0.00 | 75 | 1012.9 |
| 20260505014902 | 53 | 313 | 3.0 | 3.0 | 0.00 | 0.00 | 0.00 | 75 | 1012.8 |
| 20260505014359 | 52 | 323 | 4.0 | 5.0 | 0.00 | 0.00 | 0.00 | 75 | 1012.7 |
| 20260505013855 | 52 | 341 | 3.0 | 7.0 | 0.00 | 0.00 | 0.00 | 75 | 1012.7 |
| 20260505013352 | 53 | 320 | 5.0 | 8.0 | 0.00 | 0.00 | 0.00 | 73 | 1012.9 |
| 20260505012851 | 55 | 319 | 12.0 | 14.0 | 0.00 | 0.00 | 0.00 | 66 | 1012.7 |
| 20260505012349 | 58 | 335 | 7.0 | 9.0 | 0.00 | 0.00 | 0.00 | 51 | 1012.4 |
| 20260505011844 | 58 | 310 | 4.0 | 5.0 | 0.00 | 0.00 | 0.00 | 49 | 1012.4 |
| 20260505011341 | 58 | 339 | 4.0 | 6.0 | 0.00 | 0.00 | 0.00 | 49 | 1012.5 |
| 20260505010837 | 58 | 337 | 8.0 | 11.0 | 0.00 | 0.00 | 0.00 | 48 | 1012.2 |
| 20260505010333 | 58 | 341 | 9.0 | 11.0 | 0.00 | 0.00 | 0.00 | 49 | 1012.1 |
| 20260505005830 | 59 | 341 | 11.0 | 14.0 | 0.00 | 0.00 | 0.00 | 48 | 1011.8 |
| 20260505005327 | 59 | 353 | 7.0 | 9.0 | 0.00 | 0.00 | 0.00 | 47 | 1011.7 |
| 20260505004824 | 59 | 4 | 5.0 | 9.0 | 0.00 | 0.00 | 0.00 | 48 | 1011.7 |
| 20260505004320 | 59 | 23 | 7.0 | 8.0 | 0.00 | 0.00 | 0.00 | 49 | 1011.7 |
| 20260505003818 | 59 | 0 | 10.0 | 10.0 | 0.00 | 0.00 | 0.00 | 48 | 1011.8 |
| 20260505003315 | 59 | 11 | 7.0 | 10.0 | 0.00 | 0.00 | 0.00 | 48 | 1011.7 |
| 20260505002811 | 59 | 3 | 7.0 | 10.0 | 0.00 | 0.00 | 0.00 | 50 | 1011.7 |
| 20260505002308 | 59 | 15 | 10.0 | 11.0 | 0.00 | 0.00 | 0.00 | 49 | 1011.7 |
| 20260505001806 | 59 | 18 | 10.0 | 14.0 | 0.00 | 0.00 | 0.00 | 48 | 1011.8 |
| 20260505001303 | 59 | 2 | 10.0 | 15.0 | 0.00 | 0.00 | 0.00 | 48 | 1011.5 |
| 20260505000800 | 59 | 8 | 9.0 | 11.0 | 0.00 | 0.00 | 0.00 | 48 | 1011.7 |
| 20260505000258 | 59 | 1 | 9.0 | 13.0 | 0.00 | 0.00 | 0.00 | 50 | 1011.7 |
| 20260504235754 | 58 | 5 | 8.0 | 10.0 | 0.00 | 0.00 | 0.00 | 51 | 1011.4 |
| 20260504235250 | 59 | 357 | 12.0 | 13.0 | 0.00 | 0.00 | 0.00 | 50 | 1011.8 |
| 20260504234748 | 62 | 7 | 10.0 | 16.0 | 0.00 | 0.00 | 0.00 | 44 | 1011.8 |
| 20260504234245 | 62 | 352 | 5.0 | 6.0 | 0.00 | 0.00 | 0.00 | 39 | 1011.8 |
| 20260504233741 | 61 | 348 | 8.0 | 9.0 | 0.00 | 0.00 | 0.00 | 39 | 1011.7 |
| 20260504233237 | 61 | 356 | 9.0 | 10.0 | 0.00 | 0.00 | 0.00 | 41 | 1011.5 |
| 20260504232735 | 62 | 309 | 3.0 | 6.0 | 0.00 | 0.00 | 0.00 | 42 | 1011.5 |
| 20260504232231 | 62 | 282 | 5.0 | 8.0 | 0.00 | 0.00 | 0.00 | 49 | 1011.5 |
| 20260504231728 | 62 | 264 | 19.0 | 23.0 | 0.00 | 0.00 | 0.00 | 39 | 1011.7 |
| 20260504231225 | 63 | 295 | 13.0 | 17.0 | 0.00 | 0.00 | 0.00 | 39 | 1011.2 |
| 20260504230721 | 63 | 330 | 7.0 | 9.0 | 0.00 | 0.00 | 0.00 | 34 | 1011.2 |
| 20260504230220 | 63 | 345 | 8.0 | 10.0 | 0.00 | 0.00 | 0.00 | 34 | 1011.1 |
| 20260504225718 | 63 | 339 | 6.0 | 8.0 | 0.00 | 0.00 | 0.00 | 34 | 1011.2 |
| 20260504225214 | 63 | 347 | 5.0 | 9.0 | 0.00 | 0.00 | 0.00 | 35 | 1010.9 |
| 20260504224711 | 63 | 6 | 9.0 | 10.0 | 0.00 | 0.00 | 0.00 | 34 | 1010.7 |
| 20260504224209 | 63 | 10 | 7.0 | 10.0 | 0.00 | 0.00 | 0.00 | 34 | 1010.6 |
| 20260504223704 | 64 | 9 | 7.0 | 8.0 | 0.00 | 0.00 | 0.00 | 34 | 1010.5 |
| 20260504223200 | 64 | 27 | 6.0 | 9.0 | 0.00 | 0.00 | 0.00 | 33 | 1010.5 |
| 20260504222657 | 64 | 52 | 8.0 | 11.0 | 0.00 | 0.00 | 0.00 | 32 | 1010.2 |
| 20260504222154 | 64 | 31 | 10.0 | 13.0 | 0.00 | 0.00 | 0.00 | 32 | 1010.3 |
| 20260504221651 | 64 | 33 | 8.0 | 17.0 | 0.00 | 0.00 | 0.00 | 32 | 1010.3 |
| 20260504221149 | 66 | 4 | 9.0 | 16.0 | 0.00 | 0.00 | 0.00 | 32 | 1010.3 |
| 20260504220645 | 66 | 23 | 9.0 | 13.0 | 0.00 | 0.00 | 0.00 | 31 | 1010.2 |
| 20260504220143 | 65 | 358 | 8.0 | 14.0 | 0.00 | 0.00 | 0.00 | 32 | 1010.2 |
| 20260504215638 | 66 | 17 | 16.0 | 20.0 | 0.00 | 0.00 | 0.00 | 32 | 1010.5 |
| 20260504215136 | 67 | 13 | 19.0 | 22.0 | 0.00 | 0.00 | 0.00 | 30 | 1010.3 |
| 20260504214632 | 68 | 27 | 13.0 | 18.0 | 0.00 | 0.00 | 0.00 | 28 | 1010.6 |
| 20260504214128 | 67 | 0 | 15.0 | 24.0 | 0.00 | 0.00 | 0.00 | 30 | 1010.5 |
| 20260504213625 | 68 | 19 | 14.0 | 24.0 | 0.00 | 0.00 | 0.00 | 29 | 1010.9 |
| 20260504213122 | 69 | 350 | 12.0 | 21.0 | 0.00 | 0.00 | 0.00 | 28 | 1011.0 |
| 20260504212618 | 68 | 356 | 14.0 | 18.0 | 0.00 | 0.00 | 0.00 | 28 | 1010.9 |
| 20260504212115 | 68 | 349 | 15.0 | 21.0 | 0.00 | 0.00 | 0.00 | 30 | 1011.0 |
| 20260504211613 | 67 | 26 | 14.0 | 16.0 | 0.00 | 0.00 | 0.00 | 30 | 1011.1 |
| 20260504211109 | 65 | 320 | 12.0 | 20.0 | 0.00 | 0.00 | 0.00 | 31 | 1011.1 |
| 20260504210607 | 64 | 28 | 14.0 | 25.0 | 0.00 | 0.00 | 0.00 | 32 | 1010.9 |
| 20260504205601 | 64 | 358 | 15.0 | 22.0 | 0.00 | 0.00 | 0.00 | 34 | 1010.7 |
| 20260504205058 | 66 | 16 | 12.0 | 16.0 | 0.00 | 0.00 | 0.00 | 33 | 1010.7 |
| 20260504204556 | 66 | 338 | 9.0 | 11.0 | 0.00 | 0.00 | 0.00 | 28 | 1010.9 |
| 20260504204055 | 67 | 333 | 9.0 | 11.0 | 0.00 | 0.00 | 0.00 | 26 | 1010.9 |
| 20260504203553 | 67 | 354 | 5.0 | 10.0 | 0.00 | 0.00 | 0.00 | 26 | 1010.4 |
| 20260504203050 | 68 | 28 | 8.0 | 13.0 | 0.00 | 0.00 | 0.00 | 25 | 1010.5 |
| 20260504202545 | 68 | 11 | 14.0 | 20.0 | 0.00 | 0.00 | 0.00 | 25 | 1009.9 |
| 20260504202042 | 70 | 11 | 14.0 | 24.0 | 0.00 | 0.00 | 0.00 | 23 | 1009.6 |
| 20260504201539 | 72 | 24 | 14.0 | 20.0 | 0.00 | 0.00 | 0.00 | 22 | 1009.7 |
| 20260504201037 | 72 | 314 | 11.0 | 13.0 | 0.00 | 0.00 | 0.00 | 22 | 1009.7 |
| 20260504200533 | 72 | 300 | 8.0 | 15.0 | 0.00 | 0.00 | 0.00 | 20 | 1009.7 |
| 20260504200030 | 72 | 14 | 5.0 | 8.0 | 0.00 | 0.00 | 0.00 | 20 | 1009.9 |
| 20260504195526 | 73 | 344 | 12.0 | 17.0 | 0.00 | 0.00 | 0.00 | 19 | 1009.7 |
| 20260504195023 | 72 | 346 | 10.0 | 15.0 | 0.00 | 0.00 | 0.00 | 20 | 1010.0 |
| 20260504194519 | 72 | 321 | 13.0 | 17.0 | 0.00 | 0.00 | 0.00 | 19 | 1009.8 |
| 20260504194015 | 73 | 305 | 5.0 | 8.0 | 0.00 | 0.00 | 0.00 | 19 | 1010.0 |
| 20260504193512 | 74 | 331 | 13.0 | 16.0 | 0.00 | 0.00 | 0.00 | 18 | 1009.7 |
| 20260504193011 | 73 | 357 | 12.0 | 13.0 | 0.00 | 0.00 | 0.00 | 18 | 1009.7 |
| 20260504192509 | 73 | 302 | 10.0 | 16.0 | 0.00 | 0.00 | 0.00 | 18 | 1009.5 |
| 20260504192007 | 73 | 304 | 7.0 | 11.0 | 0.00 | 0.00 | 0.00 | 18 | 1009.7 |
| 20260504191504 | 73 | 319 | 8.0 | 15.0 | 0.00 | 0.00 | 0.00 | 18 | 1009.6 |
| 20260504190959 | 73 | 336 | 10.0 | 17.0 | 0.00 | 0.00 | 0.00 | 19 | 1009.7 |
| 20260504190455 | 73 | 329 | 7.0 | 15.0 | 0.00 | 0.00 | 0.00 | 19 | 1009.6 |
| 20260504185952 | 73 | 294 | 12.0 | 17.0 | 0.00 | 0.00 | 0.00 | 19 | 1009.8 |
| 20260504185449 | 73 | 325 | 4.0 | 8.0 | 0.00 | 0.00 | 0.00 | 19 | 1009.8 |
| 20260504184945 | 74 | 310 | 13.0 | 17.0 | 0.00 | 0.00 | 0.00 | 18 | 1009.8 |
| 20260504184441 | 74 | 357 | 9.0 | 15.0 | 0.00 | 0.00 | 0.00 | 20 | 1009.8 |
| 20260504183937 | 73 | 296 | 12.0 | 17.0 | 0.00 | 0.00 | 0.00 | 20 | 1010.0 |
| 20260504183434 | 73 | 311 | 13.0 | 18.0 | 0.00 | 0.00 | 0.00 | 17 | 1009.8 |
| 20260504182932 | 74 | 318 | 13.0 | 18.0 | 0.00 | 0.00 | 0.00 | 18 | 1009.8 |
| 20260504182429 | 73 | 349 | 12.0 | 18.0 | 0.00 | 0.00 | 0.00 | 19 | 1009.9 |
| 20260504181926 | 74 | 287 | 9.0 | 17.0 | 0.00 | 0.00 | 0.00 | 19 | 1010.3 |
| 20260504181423 | 74 | 279 | 12.0 | 18.0 | 0.00 | 0.00 | 0.00 | 17 | 1010.0 |
| 20260504180922 | 73 | 294 | 15.0 | 23.0 | 0.00 | 0.00 | 0.00 | 18 | 1010.4 |
| 20260504180420 | 73 | 317 | 17.0 | 20.0 | 0.00 | 0.00 | 0.00 | 20 | 1010.4 |
| 20260504175918 | 73 | 296 | 15.0 | 21.0 | 0.00 | 0.00 | 0.00 | 20 | 1010.3 |
| 20260504175415 | 74 | 302 | 17.0 | 22.0 | 0.00 | 0.00 | 0.00 | 19 | 1010.3 |
| 20260504174913 | 74 | 294 | 17.0 | 22.0 | 0.00 | 0.00 | 0.00 | 18 | 1010.5 |
| 20260504174410 | 73 | 268 | 14.0 | 20.0 | 0.00 | 0.00 | 0.00 | 20 | 1010.5 |
| 20260504173907 | 73 | 281 | 13.0 | 20.0 | 0.00 | 0.00 | 0.00 | 21 | 1010.6 |
| 20260504173403 | 72 | 281 | 13.0 | 22.0 | 0.00 | 0.00 | 0.00 | 23 | 1010.6 |
| 20260504172901 | 72 | 277 | 16.0 | 21.0 | 0.00 | 0.00 | 0.00 | 21 | 1010.9 |
| 20260504172357 | 72 | 301 | 15.0 | 20.0 | 0.00 | 0.00 | 0.00 | 22 | 1011.0 |
| 20260504171853 | 70 | 301 | 10.0 | 14.0 | 0.00 | 0.00 | 0.00 | 23 | 1011.0 |
| 20260504171351 | 70 | 260 | 12.0 | 17.0 | 0.00 | 0.00 | 0.00 | 24 | 1011.1 |
| 20260504170848 | 70 | 290 | 12.0 | 16.0 | 0.00 | 0.00 | 0.00 | 24 | 1011.1 |
| 20260504170344 | 69 | 280 | 15.0 | 17.0 | 0.00 | 0.00 | 0.00 | 24 | 1011.2 |
| 20260504160303 | 67 | 295 | 15.0 | 17.0 | 0.00 | 0.00 | 0.00 | 24 | 1011.3 |
| 20260504150728 | 58 | 212 | 3.0 | 5.0 | 0.00 | 0.00 | 0.00 | 39 | 1011.8 |
| 20260504150225 | 57 | 182 | 5.0 | 6.0 | 0.00 | 0.00 | 0.00 | 41 | 1011.8 |
| 20260504141154 | 53 | 231 | 2.0 | 3.0 | 0.00 | 0.00 | 0.00 | 42 | 1011.9 |
| 20260504140651 | 52 | 235 | 2.0 | 3.0 | 0.00 | 0.00 | 0.00 | 44 | 1012.0 |
| 20260504140146 | 51 | 217 | 4.0 | 6.0 | 0.00 | 0.00 | 0.00 | 44 | 1012.0 |
| 20260504130615 | 44 | 250 | 2.0 | 3.0 | 0.00 | 0.00 | 0.00 | 58 | 1012.0 |
| 20260504130112 | 43 | 270 | 3.0 | 3.0 | 0.00 | 0.00 | 0.00 | 58 | 1012.0 |